Regional Weather Roundup
Issued by NWS

Home | Current Version | Previous Version | Text Only | Print | Product List | Glossary Off
Versions: 1 2 3 4 5 6 7 8 9 10 11 12 13 14 15 16 17 18 19 20 21 22 23 24 25 26 27 28 29 30 31 32 33 34 35 36 37 38 39 40 41 42 43 44 45 46 47 48 49 50

000
ASUS43 KBIS 040610
RWRND

NORTH DAKOTA REGIONAL WEATHER ROUNDUP
NATIONAL WEATHER SERVICE BISMARCK ND
1200 AM CST SUN DEC 04 2016

NOTE: "FAIR" INDICATES FEW OR NO CLOUDS BELOW 12,000 FEET WITH NO
SIGNIFICANT WEATHER AND/OR OBSTRUCTIONS TO VISIBILITY.


NDZ001>003-009>011-017-040700-
NORTHWEST NORTH DAKOTA

CITY           SKY/WX    TMP DP  RH WIND       PRES   REMARKS
WILLISTON      CLOUDY    35  29  78 W16       29.77R
6HR MIN TEMP:  30; 6HR MAX TEMP:  35; 6HR PCP:  0.01;

MINOT          CLOUDY    32  30  92 SW9       29.70F
MINOT AFB      CLOUDY    32  30  91 W10       29.70S
$$

NDZ018>021-031>035-040>046-040700-
SOUTHWEST NORTH DAKOTA

CITY           SKY/WX    TMP DP  RH WIND       PRES   REMARKS
BISMARCK       CLOUDY    30  25  81 CALM      29.79S
6HR MIN TEMP:  22; 6HR MAX TEMP:  30; 6HR PCP:  0.01;

DICKINSON      PTCLDY    30  25  81 W20       29.76R WCI  17
GARRISON         N/A     33  31  92 W13       29.73S
6HR MIN TEMP:  26; 6HR MAX TEMP:  33; 6HR PCP:  0.06;

HETTINGER ARPT CLEAR     29  23  78 W17       29.83R WCI  17
$$

NDZ004>008-012>016-024-026-027-054-040700-
NORTHEAST NORTH DAKOTA

CITY           SKY/WX    TMP DP  RH WIND       PRES   REMARKS
GRAND FORKS    CLOUDY    34  31  88 S15       29.88F
GRND FRKS AFB  CLOUDY    33  31  95 S14       29.86F
DEVILS LAKE    CLOUDY    33  31  92 S12       29.77
$$

NDZ022-023-025-028>030-036>039-047>053-040700-
SOUTHEAST NORTH DAKOTA

CITY           SKY/WX    TMP DP  RH WIND       PRES   REMARKS
FARGO          CLOUDY    35  31  85 SE17G28   29.90F
6HR MIN TEMP:  32; 6HR MAX TEMP:  35; 6HR PCP: TRACE;

JAMESTOWN      MOCLDY    32  30  92 S13       29.79F
$$





USA.gov is the U.S. government's official web portal to all federal, state and local government web resources and services.